RH
48 55 60 61 60 59 61 68 74 77 76 71 69 70 74 73 69 64 59 54 51 49 53 55 53 46 37 28 22 16 13 13 16 20 25 28 31 34 37 40 44 46 46 42 37 33 29 28 29 31 35 40 47 55 62 66 68 69 73 75 74 71 66 62 61 64 68 74 80 84 88 91 93 95 97 97 96 95 94 92 90 89 88 87 86 84
46 50 54 57 57 55 53 57 61 63 63 60 57 57 60 63 63 61 58 53 49 47 50 56 57 54 46 38 30 23 17 14 14 16 20 24 27 30 32 34 38 41 43 42 40 36 32 30 28 28 30 34 38 43 49 55 58 61 65 70 72 71 67 61 60 61 67 72 76 80 85 87 91 94 97 98 98 96 95 93 91 89 88 86 84 82
50 49 48 51 52 51 48 51 53 54 56 54 53 53 53 54 55 56 56 53 49 46 48 55 58 58 54 46 38 31 24 18 15 14 16 20 23 26 28 30 33 36 38 40 39 38 35 32 30 28 28 30 32 35 39 43 47 51 55 62 67 69 68 63 60 61 66 71 76 79 83 84 88 93 96 98 98 98 96 94 92 90 89 86 84 81
54 51 48 46 46 46 45 47 50 54 56 54 53 53 54 55 56 57 58 56 51 47 48 54 58 61 59 52 45 38 30 24 19 15 14 16 19 22 25 27 29 31 34 35 36 36 35 34 32 30 28 28 29 30 32 35 39 44 49 55 62 67 70 67 64 63 66 71 75 79 82 86 88 90 94 96 98 98 97 95 94 93 92 89 86 83
54 52 50 45 42 40 40 42 48 56 64 65 63 61 59 62 63 65 67 63 56 49 48 53 58 61 62 57 50 42 35 28 23 18 15 15 16 19 22 24 26 28 30 31 32 33 33 33 32 31 30 29 28 28 29 31 36 42 48 54 60 67 72 71 69 68 68 72 76 80 86 90 92 92 94 96 98 98 98 96 95 94 92 90 88 85
55 52 52 46 41 37 35 37 44 54 68 76 79 77 72 72 73 76 80 73 62 52 48 52 57 60 62 60 54 48 40 33 26 22 17 15 15 16 19 21 24 26 27 28 29 30 30 31 32 32 31 30 30 29 28 30 35 42 49 56 62 69 74 74 74 72 72 75 80 86 92 95 97 98 97 98 98 99 99 97 95 92 91 90 88 86
62 58 57 51 43 36 31 34 40 52 67 79 87 89 86 81 81 84 88 81 68 56 49 52 57 60 62 60 57 52 46 38 31 25 20 16 15 15 16 18 21 24 26 26 27 27 28 28 30 31 32 32 32 31 30 32 36 42 48 56 62 69 74 76 76 74 74 80 86 92 96 97 97 98 99 99 100 99 99 97 94 90 88 88 87 85
74 68 64 58 49 40 32 32 38 48 61 75 86 92 92 88 87 88 90 83 70 58 51 54 58 60 60 60 58 55 51 45 38 30 24 18 15 14 14 16 18 21 24 26 26 26 26 26 27 29 30 32 34 34 34 36 39 42 46 52 60 66 72 74 75 75 76 84 89 93 94 94 96 97 99 100 99 99 98 96 92 89 86 85 84 83
81 77 72 66 58 49 38 34 36 42 53 67 79 88 91 90 90 89 89 79 67 57 53 56 58 58 58 56 56 55 55 52 46 39 30 23 18 14 12 13 15 18 21 24 26 26 26 26 26 26 28 31 34 38 42 45 48 49 49 50 54 60 67 71 72 74 77 85 90 92 90 91 92 94 98 98 98 97 96 93 90 87 84 83 82 81
83 82 79 74 67 58 47 40 37 38 44 55 67 78 86 88 89 89 89 74 62 54 52 55 55 53 50 49 48 50 54 57 54 48 40 30 23 16 13 12 13 16 19 22 24 26 26 26 25 25 26 29 33 40 47 56 61 63 61 57 56 58 62 66 69 72 77 84 88 89 87 88 90 92 95 95 95 94 92 90 87 84 82 82 82 83
80 81 80 77 72 64 55 46 39 35 36 41 50 61 72 79 84 85 82 66 55 49 48 48 46 42 38 36 35 38 48 57 60 58 51 41 31 23 16 13 12 14 16 20 23 26 26 26 26 24 24 26 30 36 45 58 67 72 73 69 67 66 67 67 69 72 76 83 86 87 86 87 89 92 92 92 90 88 86 84 82 81 80 82 84 86
74 74 76 74 71 66 59 50 42 35 30 31 36 44 55 64 72 74 70 56 47 41 38 37 37 36 30 26 23 25 36 51 60 62 60 52 42 32 22 16 14 13 15 18 22 24 26 26 26 25 24 24 27 31 38 49 60 70 76 76 76 76 76 74 74 76 77 84 88 91 92 92 92 92 92 90 87 84 82 80 78 78 79 83 86 89
66 64 65 66 65 62 58 52 44 36 28 26 26 31 39 49 57 60 56 46 37 31 28 37 45 48 39 30 24 22 28 44 56 62 64 59 51 42 30 22 17 14 14 17 20 23 26 26 26 26 24 24 24 26 30 38 48 60 70 74 77 80 81 82 82 81 81 86 92 95 96 95 96 95 93 90 87 84 82 80 78 78 80 86 90 92
60 56 55 55 54 53 51 48 43 37 28 23 22 23 26 34 40 44 42 35 28 27 36 62 75 76 67 58 45 35 30 41 52 60 64 62 56 49 39 29 22 16 14 16 18 22 24 26 26 26 25 24 24 24 26 29 36 44 56 64 71 76 80 83 84 85 86 90 93 96 97 97 97 96 94 92 90 87 86 84 83 83 85 89 92 94
60 56 53 50 47 44 42 42 40 37 28 22 20 19 20 23 26 29 30 26 27 38 64 85 92 92 89 86 74 60 42 45 53 60 63 61 58 52 45 36 26 20 16 16 17 20 23 25 26 26 26 24 24 23 24 26 28 33 40 49 58 66 72 76 79 82 84 89 92 95 96 96 97 97 96 93 92 90 90 89 90 91 92 93 94 93
66 63 60 56 50 44 38 38 38 37 30 22 18 16 16 18 22 24 26 24 36 58 89 94 95 94 93 93 89 79 61 56 57 61 63 61 58 54 47 39 30 23 18 16 17 19 22 24 26 26 26 24 24 23 23 24 25 28 32 38 46 54 62 67 72 76 79 87 92 93 93 95 96 97 97 94 92 92 91 91 93 95 97 97 95 94
71 70 69 65 58 49 39 37 37 36 32 24 17 14 14 18 23 27 26 28 52 80 97 96 95 94 93 93 92 86 74 64 61 62 65 62 58 53 48 40 31 24 19 17 16 18 21 24 26 26 26 26 24 24 22 22 24 25 28 33 39 45 52 59 64 69 74 82 88 92 92 94 96 96 96 94 92 91 90 90 93 96 98 98 96 95
72 73 74 70 63 54 43 37 36 36 34 26 19 14 13 18 24 28 27 42 68 92 96 95 94 94 92 92 92 90 83 71 65 64 66 64 59 53 47 39 31 24 19 17 17 18 20 23 25 26 27 27 26 24 23 22 22 23 24 28 33 38 44 51 57 62 68 75 83 90 93 94 96 96 95 93 92 90 90 91 94 97 99 99 99 98
74 74 75 72 67 60 50 40 36 35 36 30 23 15 12 18 24 30 34 60 82 97 96 95 94 93 92 92 92 93 92 78 69 65 66 65 60 54 48 40 32 24 19 17 17 18 20 22 24 26 28 28 27 26 25 24 22 22 22 24 26 31 36 43 49 55 60 71 81 89 92 95 96 96 95 92 90 90 90 92 95 97 100 100 100 100
78 76 74 73 69 64 55 44 38 35 36 34 28 20 13 18 24 34 46 74 90 96 95 96 95 94 93 93 94 94 95 84 74 66 67 68 65 59 50 42 35 28 22 20 18 19 21 24 26 28 30 30 30 29 28 26 24 22 21 21 22 24 28 34 40 45 51 66 79 88 90 93 95 96 95 92 92 91 92 95 98 99 100 100 100 100
81 78 76 74 71 66 58 48 41 36 36 37 33 26 16 19 25 37 57 83 94 96 95 96 96 95 94 94 94 94 96 90 83 77 76 74 70 66 58 49 42 35 29 25 23 23 24 26 28 31 32 33 32 32 30 29 27 24 22 21 20 21 24 28 32 38 46 62 76 86 88 92 94 95 94 93 92 92 94 96 98 99 99 100 100 100
84 82 80 78 74 69 62 54 44 36 34 37 36 30 21 21 26 40 61 84 94 96 95 95 95 94 94 94 93 93 96 94 93 92 92 83 76 72 67 60 52 44 38 34 30 28 28 29 32 34 36 36 36 35 34 32 30 27 24 22 22 23 25 28 31 38 49 65 76 84 89 92 94 94 94 93 93 94 96 96 97 98 97 98 98 98
86 85 82 81 78 74 68 58 47 37 31 35 36 33 26 23 26 39 58 80 90 93 94 94 94 94 95 94 93 92 94 94 94 93 94 92 86 80 75 71 64 57 49 46 43 40 39 37 38 39 41 42 42 41 40 38 34 31 29 32 34 37 38 40 42 48 60 70 76 82 90 94 95 94 92 92 92 92 92 93 95 97 97 96 95 95
86 86 84 83 82 79 74 63 52 40 31 31 33 34 30 24 26 36 54 71 82 89 92 93 94 94 95 94 92 92 92 94 94 92 92 94 92 90 85 84 80 74 68 64 63 65 67 63 58 54 52 51 50 50 48 46 42 38 35 46 56 62 63 66 67 70 77 77 80 84 90 94 95 95 94 94 92 90 88 90 93 96 98 97 96 95
85 86 85 84 82 80 76 68 58 48 36 30 30 33 33 26 26 32 45 61 73 81 87 91 93 94 95 94 92 91 90 93 94 94 92 92 92 93 92 94 95 93 90 84 82 84 94 92 88 82 76 72 68 64 61 58 54 49 43 49 58 67 76 80 84 88 93 90 90 92 95 96 97 97 97 97 96 95 92 93 96 98 98 98 98 98
84 84 84 83 82 79 76 71 64 56 44 32 29 30 34 30 27 30 39 49 58 68 77 85 90 92 94 94 92 90 89 92 94 94 93 92 92 94 96 98 98 98 99 97 93 91 94 98 98 96 94 94 92 88 84 78 73 68 62 56 55 58 67 74 82 90 96 98 98 99 99 99 100 100 100 100 99 99 98 99 99 99 99 99 98 98
86 85 84 82 81 79 77 74 68 60 51 38 30 28 33 32 30 29 32 40 46 53 63 74 82 88 92 94 93 90 87 90 93 94 93 93 93 94 97 98 98 98 98 99 98 96 94 96 98 98 97 98 99 99 100 96 93 90 86 79 72 67 67 66 70 77 87 94 98 100 100 100 100 100 100 100 100 100 100 100 100 100 99 99 99 98
88 87 85 83 80 79 77 74 70 64 58 46 36 30 30 33 32 29 28 33 36 40 50 61 71 80 88 92 92 90 86 90 92 93 92 93 93 94 96 96 96 95 96 98 98 98 97 97 97 98 97 98 99 100 100 99 99 99 99 97 95 92 89 83 80 80 84 92 96 99 99 100 100 100 100 100 100 100 100 100 100 99 99 99 98 98
88 88 87 85 82 79 77 74 70 66 62 54 43 34 29 32 32 30 26 28 30 33 38 48 58 69 80 88 91 90 86 89 92 92 92 92 93 93 95 95 94 93 93 96 98 97 97 97 98 98 98 98 98 99 99 99 99 99 99 99 99 99 100 98 97 96 94 96 97 98 99 99 99 99 99 99 99 99 99 99 99 99 99 98 98 97
87 88 88 86 84 81 78 73 68 65 62 58 50 40 31 31 32 32 28 26 25 26 29 37 47 58 69 80 87 90 88 88 90 92 92 92 92 92 93 93 94 93 92 94 96 97 96 97 98 98 98 98 98 98 98 99 99 98 98 98 99 99 99 99 99 99 99 99 98 98 98 99 99 99 99 99 98 98 98 98 98 98 98 98 98 98
88 88 88 88 86 83 79 74 68 64 61 60 56 48 37 32 32 33 31 26 23 22 22 30 40 49 56 67 78 86 89 88 89 91 92 92 90 90 90 90 92 93 93 93 94 96 96 97 97 98 98 97 97 97 97 98 98 98 98 97 98 98 98 98 98 98 98 98 98 98 98 98 98 98 98 98 98 98 97 97 97 97 97 97 97 97
88 88 88 88 86 84 80 75 69 64 60 60 58 54 44 36 32 32 32 28 24 20 19 24 31 38 43 53 65 77 87 88 90 91 90 92 90 88 85 86 88 90 93 94 94 94 94 94 94 94 95 96 96 96 96 97 97 98 97 96 96 96 97 97 97 97 97 97 97 97 97 97 97 97 97 97 97 97 96 96 96 96 96 96 96 96
88 88 88 88 87 85 82 77 72 66 62 61 60 58 52 42 35 32 32 29 25 21 18 20 24 28 33 40 52 65 79 88 92 92 90 92 90 88 84 81 82 84 89 93 95 96 95 93 91 90 90 92 94 96 96 97 97 97 97 96 95 95 95 95 95 96 96 95 95 95 95 95 96 96 96 96 96 95 95 94 94 94 93 93 93 93
88 88 88 88 87 86 84 80 75 70 66 64 64 63 59 48 40 34 32 30 26 21 17 18 22 25 28 31 40 54 71 87 92 91 90 90 90 89 85 81 78 77 80 86 92 95 96 95 93 90 88 88 90 93 95 96 96 96 97 96 96 96 95 94 94 94 94 94 93 93 93 93 93 94 94 94 93 93 92 92 90 90 90 89 88 88
88 88 88 88 87 86 84 82 79 76 73 70 70 68 66 56 46 38 33 30 26 22 18 19 22 26 29 29 34 46 66 85 91 92 90 90 88 87 86 82 77 74 72 76 82 89 93 95 96 94 90 89 89 90 92 95 96 96 96 96 96 96 96 95 94 94 94 93 92 92 92 92 92 92 92 91 90 89 88 87 86 85 84 83 82 81
87 87 87 87 87 86 84 83 82 82 82 80 78 76 73 64 54 44 36 31 28 28 29 29 30 30 31 34 37 44 61 82 91 92 92 89 87 85 83 78 76 74 72 71 74 78 84 89 92 94 94 92 91 90 92 94 95 96 95 94 94 95 95 95 95 95 94 94 93 92 92 90 90 90 90 88 86 85 84 82 81 80 80 79 78 77
86 86 86 87 87 87 85 84 84 86 87 87 86 83 80 72 62 50 40 36 37 42 47 49 48 44 42 43 46 52 59 79 90 94 94 91 87 82 79 73 71 71 73 73 73 73 75 80 85 90 92 94 93 92 92 93 94 95 94 94 94 94 94 94 94 94 94 93 92 92 90 90 88 88 86 84 83 82 80 79 79 78 78 77 76 76
84 84 86 86 87 87 86 85 86 88 89 89 89 88 86 79 69 58 47 44 51 60 66 69 69 68 64 63 64 67 69 80 88 93 94 93 90 84 76 70 68 69 73 76 76 74 71 72 76 81 87 92 94 93 92 92 93 94 94 93 93 92 92 92 92 92 91 90 90 90 89 88 86 85 83 81 80 79 78 78 77 77 76 76 75 74
82 83 84 86 86 87 88 88 88 88 89 90 89 89 89 84 76 66 57 56 63 71 75 77 81 83 83 81 80 81 83 87 90 93 94 93 90 85 79 74 70 70 74 82 85 83 76 71 70 73 79 86 91 93 93 92 92 92 92 92 90 90 89 89 88 87 87 87 86 86 86 85 84 82 80 79 78 77 76 76 76 76 76 75 74 74
80 81 82 84 86 88 88 89 89 89 89 90 90 90 89 88 84 77 67 68 73 77 78 78 83 89 90 90 90 90 90 92 93 93 93 93 90 87 83 79 76 74 76 84 90 90 86 80 76 75 77 84 88 91 92 92 92 92 90 88 86 86 85 85 84 84 84 83 83 82 82 82 81 80 79 77 76 76 76 77 77 77 76 76 76 74
79 80 81 83 85 87 88 89 89 89 89 90 90 90 90 89 88 85 77 78 81 84 82 79 84 90 92 92 92 92 92 93 93 93 92 92 90 87 84 82 80 79 80 85 90 92 92 89 88 87 87 89 90 90 90 90 90 90 89 85 83 82 82 81 80 80 81 80 80 79 79 78 78 77 76 76 76 76 78 78 78 78 78 77 77 76
77 78 79 82 84 86 87 88 89 89 89 90 90 90 90 90 90 89 86 87 88 88 86 82 85 90 92 90 90 90 91 92 92 92 92 91 90 88 86 85 84 85 87 90 92 93 94 93 93 92 92 92 90 89 87 88 88 87 85 83 82 80 78 76 76 77 78 77 76 76 76 75 74 74 74 75 76 78 79 78 78 78 79 78 78 77
76 77 78 80 82 85 86 88 89 89 89 89 90 90 90 90 90 90 90 90 90 90 90 86 87 89 92 90 90 90 90 92 92 92 92 91 91 90 90 90 92 92 93 93 93 93 94 94 93 92 92 90 88 86 83 83 83 82 81 82 81 79 76 73 74 74 74 74 74 74 74 74 74 74 74 76 77 78 79 78 78 78 79 78 78 77
75 76 76 78 80 83 86 87 88 89 89 89 89 90 90 90 90 90 89 90 90 90 90 90 89 90 92 92 92 92 92 92 92 92 92 91 91 92 92 92 92 92 92 92 92 93 93 93 92 92 92 90 88 84 80 79 77 76 77 79 79 76 73 72 72 72 73 74 74 74 74 75 76 76 76 77 78 80 80 80 80 80 79 78 78 78
74 74 76 76 78 81 84 86 88 89 89 89 89 89 90 90 90 90 89 90 90 90 90 90 90 90 90 90 92 92 92 92 92 92 92 92 92 92 92 92 91 91 91 92 92 92 92 92 92 92 92 90 88 85 81 77 75 74 75 76 76 75 74 73 72 72 72 74 76 76 77 78 79 80 80 80 82 82 83 83 83 83 82 81 80 80
72 73 74 76 77 80 83 85 87 88 89 89 89 89 89 90 90 90 90 90 90 90 90 90 90 90 90 90 91 92 92 92 92 92 92 92 91 91 91 91 91 90 90 90 91 92 92 91 91 92 92 92 90 86 82 78 76 74 74 74 74 75 76 76 74 74 75 77 78 80 81 82 82 83 83 84 85 85 85 85 85 85 84 83 82 82
70 72 74 74 76 79 81 84 86 87 88 88 89 89 89 89 90 90 90 90 90 90 90 90 90 90 90 90 90 92 92 92 92 92 92 92 91 91 91 92 91 90 89 89 90 90 91 90 90 90 91 92 90 88 85 82 79 78 77 76 77 78 80 80 80 80 81 82 83 84 84 85 85 86 87 88 88 87 87 87 87 86 86 84 84 83
70 71 72 74 76 78 80 82 84 86 88 88 88 89 89 89 89 90 90 90 89 90 90 90 89 89 88 90 91 92 92 92 92 92 92 90 90 90 90 90 90 90 89 88 88 89 90 90 91 90 90 90 90 90 90 88 86 84 83 83 83 84 85 86 87 88 88 88 88 89 89 89 89 90 90 90 90 90 90 89 88 88 86 85 84 83
68 70 71 73 74 77 79 81 83 85 87 88 88 89 89 89 89 89 89 89 89 89 89 89 89 88 87 88 90 91 92 92 92 92 90 89 89 89 89 89 90 90 90 90 89 89 90 90 91 91 90 90 90 90 92 91 90 90 90 89 89 89 90 90 90 91 92 92 92 92 92 92 91 91 92 92 92 91 90 90 88 87 86 85 84 84
65 67 69 71 74 76 78 80 82 84 86 87 88 88 89 89 89 89 89 89 89 89 89 89 89 88 88 88 89 90 92 92 92 91 90 89 88 88 88 88 89 90 91 91 90 90 90 90 90 90 90 90 90 90 90 90 91 91 91 91 90 90 90 91 91 91 91 91 91 91 91 90 90 90 91 90 90 90 90 88 87 86 85 85 84 84
62 64 66 68 71 73 76 78 80 82 84 86 87 88 88 88 89 89 89 89 89 89 89 89 89 88 88 88 89 90 91 92 92 92 90 90 90 89 89 89 90 90 92 92 91 90 90 90 90 90 90 90 90 90 89 90 90 90 90 90 90 90 90 90 90 90 90 90 90 90 90 90 90 90 90 90 89 89 88 87 86 86 86 85 84 84
Wind_Speed
45 48 50 51 50 49 47 46 45 44 45 46 46 45 44 45 45 45 45 45 44 42 41 40 40 40 41 42 42 43 44 44 45 45 45 45 45 45 45 46 45 45 45 45 45 46 47 48 49 49 50 50 49 48 46 44 42 41 41 39 37 37 37 38 38 39 39 39 39 39 39 38 37 36 36 36 36 36 36 36 36 36 35 35 34 32
41 43 45 48 50 50 50 48 47 47 48 48 48 48 47 46 46 46 46 46 46 44 43 42 41 41 40 41 41 42 42 43 44 44 44 45 45 45 45 45 45 45 45 45 45 45 46 47 48 49 50 50 50 50 49 47 45 44 43 41 39 38 38 39 39 39 39 40 40 40 40 40 39 38 37 37 38 38 38 38 37 37 36 35 34 33
39 40 42 45 47 49 49 49 48 48 48 48 48 48 48 48 48 47 47 47 47 46 44 43 42 41 41 40 40 41 41 42 43 43 44 44 45 45 45 45 45 45 45 45 45 45 45 46 47 48 49 50 50 50 50 49 48 47 45 43 41 40 39 40 40 40 40 40 40 40 40 40 40 39 39 40 40 41 40 40 39 38 37 36 35 34
37 39 41 42 44 46 47 48 48 48 48 48 48 48 48 48 47 47 47 47 47 46 45 44 43 42 41 40 40 40 40 41 42 42 43 44 44 45 45 45 45 45 45 45 44 45 45 45 46 47 48 49 50 50 50 50 49 48 47 46 44 42 41 41 41 41 41 41 40 40 40 40 40 40 41 42 43 43 42 42 41 39 38 37 36 35
36 38 40 40 41 42 44 46 47 47 47 46 46 47 47 47 46 46 46 46 46 46 45 44 43 42 41 41 40 40 39 40 41 42 42 43 44 44 45 45 45 45 45 44 44 44 44 45 45 46 47 48 49 50 50 50 49 48 47 46 45 43 42 41 41 41 41 41 40 40 40 40 40 40 41 42 42 42 42 41 40 39 38 36 36 35
34 36 37 38 39 41 42 44 46 47 47 46 46 46 46 46 44 43 43 45 46 47 46 44 43 42 42 41 40 39 39 39 40 41 42 43 44 44 45 45 45 45 44 44 44 44 44 44 45 45 46 47 48 49 49 49 49 47 47 46 45 43 42 41 41 41 41 40 40 40 40 39 39 39 39 39 39 39 38 38 38 37 36 35 35 35
33 34 35 36 37 39 41 43 45 47 48 47 46 46 45 45 43 42 42 44 46 46 46 44 43 42 41 41 40 39 38 38 39 40 41 42 43 44 45 45 45 45 45 44 44 44 44 44 44 45 45 46 47 48 49 49 48 47 47 46 44 43 41 41 40 40 40 40 39 39 39 38 37 36 37 37 37 35 34 33 34 34 34 33 34 34
31 32 33 35 36 37 39 42 44 47 48 49 48 46 45 44 43 43 43 45 46 46 45 44 43 42 41 41 40 39 38 38 38 39 40 42 43 44 45 45 45 45 45 44 44 44 44 44 44 44 45 45 46 47 47 47 47 47 47 46 45 43 42 41 41 41 41 40 40 40 39 37 36 36 36 36 36 34 31 31 32 33 33 33 34 34
30 32 33 34 35 36 37 40 43 45 48 50 50 49 47 46 44 44 45 46 46 45 45 44 43 42 41 41 39 38 37 37 37 38 39 41 43 44 45 45 45 45 45 45 44 44 44 44 44 44 44 45 45 45 45 45 45 45 46 46 45 44 43 42 42 42 42 41 41 41 40 40 39 38 37 36 35 33 31 32 33 34 34 34 35 35
28 30 32 34 35 36 37 38 40 43 46 49 51 51 50 48 46 45 46 47 46 45 44 43 43 43 43 42 40 38 37 37 37 38 38 39 41 43 44 45 45 45 45 45 44 44 44 44 44 44 44 44 45 45 44 44 43 43 44 44 45 45 45 44 44 43 43 43 43 43 43 43 42 41 39 37 36 35 35 35 36 36 36 36 36 36
26 28 30 32 34 35 36 37 38 40 43 47 49 51 51 51 49 48 47 47 46 44 43 42 42 43 43 43 41 39 37 36 36 37 37 38 39 40 42 43 44 45 45 45 45 44 44 44 44 44 44 44 45 45 45 44 43 42 42 42 43 44 44 45 45 44 44 44 45 45 45 44 43 42 41 40 39 39 39 39 39 39 39 38 38 37
24 26 29 31 33 34 35 36 36 37 40 44 47 49 50 51 51 50 49 47 45 42 41 40 39 40 41 42 42 40 38 36 36 36 36 36 37 38 40 42 43 44 45 45 45 45 45 45 45 45 45 45 45 45 45 45 45 44 42 41 41 42 43 43 44 45 45 44 45 45 44 43 42 42 41 41 42 42 42 41 41 41 41 40 39 39
24 26 28 30 32 34 35 36 35 36 38 41 45 47 49 50 51 50 48 46 43 41 39 36 35 36 38 39 40 40 38 37 36 35 35 35 36 37 38 40 42 44 45 45 45 45 45 45 45 45 45 45 45 45 45 46 46 45 44 42 41 41 41 42 42 43 44 44 44 44 43 42 41 41 41 41 42 42 42 42 43 42 42 41 40 40
25 27 29 30 32 34 35 35 35 36 38 41 44 47 48 49 48 47 46 44 41 38 36 34 33 33 34 35 36 37 37 36 35 35 35 35 35 36 37 39 41 43 44 45 46 46 46 45 45 45 45 45 45 45 45 46 46 46 46 45 44 43 42 41 42 42 42 42 42 42 41 40 40 40 40 41 41 42 42 42 43 43 43 42 42 43
26 27 29 30 32 33 34 35 36 37 38 41 43 44 45 45 45 45 44 42 39 37 35 33 33 32 31 30 32 34 35 35 34 34 34 35 35 36 36 38 40 41 43 45 46 46 46 46 46 46 45 45 45 45 45 45 45 45 46 46 46 45 44 44 43 42 42 42 41 40 39 39 39 39 39 40 41 41 41 42 42 42 42 43 44 45
25 26 27 29 30 31 33 34 36 37 38 39 41 42 43 44 44 44 43 41 40 38 37 34 32 30 29 27 28 31 33 34 34 33 33 34 35 36 36 37 39 41 43 44 45 46 46 46 46 46 45 45 45 45 45 45 44 44 44 45 45 46 46 46 45 45 43 43 42 41 41 40 40 40 40 40 40 41 41 41 41 42 42 45 46 48
23 23 24 25 27 28 31 33 36 38 38 39 40 42 43 44 44 44 43 42 41 40 39 36 33 30 28 25 26 29 32 33 33 33 33 33 34 35 36 37 39 41 42 44 45 46 46 46 46 46 45 45 45 45 44 44 44 44 44 44 44 45 46 46 46 46 45 44 43 42 42 41 41 41 41 41 41 41 41 41 42 42 44 47 50 50
20 21 22 23 24 26 29 32 35 37 38 39 40 41 43 43 44 43 43 43 43 42 40 37 34 31 28 25 25 28 31 32 33 33 32 33 34 35 35 37 38 40 42 43 45 45 46 46 46 46 45 45 45 45 45 45 44 44 44 44 44 45 45 46 46 47 46 46 45 44 43 42 42 43 43 42 42 42 42 42 43 44 47 50 52 52
19 19 20 21 22 24 27 30 33 36 38 39 40 40 42 43 44 44 44 45 45 44 41 38 35 32 29 27 26 28 30 32 33 33 33 33 33 34 35 36 37 39 41 43 44 45 45 46 45 45 45 45 45 45 45 45 45 45 45 45 45 45 45 46 46 47 47 46 45 44 44 43 44 44 44 43 43 42 42 42 43 46 49 52 54 53
19 19 19 19 20 22 25 28 32 35 37 39 39 40 41 43 45 46 47 47 47 46 43 40 36 33 30 29 28 28 29 31 33 33 33 33 33 33 34 35 36 38 40 42 43 44 45 45 45 45 45 45 45 45 45 45 45 45 45 45 45 45 45 46 46 47 46 46 45 45 44 44 45 45 44 43 42 41 40 42 44 47 51 54 55 54
18 18 18 18 19 20 23 27 30 33 36 38 39 39 41 43 46 48 49 50 49 47 45 42 38 34 31 30 31 31 31 31 32 32 32 32 32 32 33 34 35 36 38 40 41 42 43 44 44 44 45 45 45 45 45 45 45 45 45 45 45 45 45 46 46 46 45 45 44 44 44 45 46 45 44 42 41 41 40 42 45 49 53 55 56 55
17 17 17 17 18 20 22 25 28 31 35 37 39 40 41 43 46 49 50 51 50 48 46 44 39 35 31 31 33 34 34 33 32 31 31 31 31 32 32 32 33 34 35 36 38 39 41 42 43 43 44 44 44 45 44 44 44 44 44 44 44 44 44 44 44 44 43 43 43 43 43 45 46 46 44 42 42 42 42 43 46 51 55 57 57 56
16 16 16 16 17 19 20 22 25 29 33 37 39 41 42 43 46 49 51 51 50 49 47 45 41 36 32 31 32 35 37 37 35 33 31 30 31 31 30 31 31 31 32 32 33 34 36 38 39 40 41 41 42 42 42 42 42 42 42 42 41 41 41 40 40 40 41 41 42 42 43 44 45 46 45 44 43 43 43 45 48 53 56 58 59 58
15 16 16 17 17 18 19 21 24 28 32 35 38 40 41 43 46 49 50 50 50 49 48 47 42 37 34 31 30 33 38 41 40 37 34 32 31 31 30 29 29 30 30 30 30 29 30 31 33 35 35 37 38 38 39 39 40 40 40 40 38 37 36 35 35 36 38 39 40 41 43 43 44 45 45 45 45 45 45 47 50 54 58 61 62 61
15 15 16 17 17 17 18 20 23 26 30 33 36 38 40 42 45 48 49 49 49 49 48 47 44 40 37 32 29 30 38 43 45 42 38 35 33 32 30 31 31 31 31 30 30 29 29 28 28 29 29 30 31 32 34 35 36 37 38 39 39 38 37 36 35 36 37 38 39 40 42 43 43 44 45 46 46 47 48 49 52 55 59 62 63 62
14 15 16 16 16 16 17 19 21 24 27 31 34 37 39 42 44 47 48 48 48 48 48 48 46 43 40 34 29 30 37 43 47 47 44 39 36 35 34 35 34 34 33 32 32 31 32 32 31 29 28 28 27 27 29 30 31 32 33 36 38 40 40 40 39 38 38 39 40 41 42 42 43 43 44 45 46 47 49 51 53 56 59 60 60 60
13 14 15 15 16 16 17 18 19 22 25 29 32 36 38 41 43 46 47 49 49 49 48 49 47 45 43 37 31 30 37 43 47 49 48 44 40 38 38 39 38 37 36 36 35 34 34 35 34 33 32 32 32 31 30 29 29 29 30 31 33 36 37 38 39 39 40 40 41 42 42 42 42 42 43 43 44 46 48 50 52 54 57 58 58 57
11 12 13 14 14 15 16 17 18 20 23 27 30 34 37 40 42 45 47 50 50 48 47 48 47 46 45 40 33 30 37 44 48 49 49 48 45 43 42 42 41 40 39 38 38 38 38 37 37 36 36 36 37 38 37 35 34 33 32 32 33 33 34 35 36 37 39 40 41 42 42 42 42 42 42 42 43 44 46 47 49 52 54 55 54 52
10 11 12 12 13 13 14 15 16 18 20 24 28 32 35 39 41 44 47 49 49 48 47 47 48 48 47 43 35 31 36 43 48 49 49 49 48 47 46 45 44 43 42 40 40 41 41 41 40 39 40 40 40 41 41 41 40 39 39 38 38 37 37 38 38 39 40 41 43 43 43 43 42 42 42 42 42 42 43 44 46 47 48 48 46 42
8 9 10 11 11 12 12 14 15 16 18 21 25 29 34 38 41 43 45 47 49 49 47 45 45 47 49 46 39 34 35 43 47 49 49 49 50 50 49 47 46 45 44 43 42 42 43 43 42 42 42 43 43 43 44 43 43 43 43 43 43 42 42 42 42 42 43 44 44 44 44 43 43 42 42 41 40 40 40 41 41 42 41 40 38 36
7 8 9 9 10 11 11 12 14 15 17 19 23 27 32 36 39 41 43 45 48 49 47 44 43 45 49 48 43 38 36 42 47 49 49 49 49 50 49 49 48 47 46 45 45 45 44 43 43 43 43 44 44 45 45 45 45 45 45 45 45 44 44 44 44 44 44 44 44 43 42 42 42 41 40 38 37 37 36 36 36 36 35 34 34 34
6 7 8 8 9 10 11 12 13 15 16 18 21 25 30 34 38 40 42 45 47 48 47 45 44 45 49 49 46 41 38 41 46 49 50 49 48 48 48 49 49 48 47 46 46 47 47 45 45 44 44 44 45 45 46 46 46 46 46 45 44 44 44 44 44 44 44 43 42 41 40 40 39 38 37 36 35 34 34 33 33 32 32 32 33 33
6 7 7 7 8 9 10 11 13 14 16 18 21 24 28 33 36 39 42 43 45 46 46 46 45 46 47 49 47 42 39 41 46 50 51 50 48 46 46 47 47 48 48 47 47 47 47 47 46 46 45 45 45 46 46 46 46 47 46 45 44 43 43 43 43 43 42 41 40 39 38 37 36 35 34 34 33 32 32 31 31 31 31 31 31 31
5 6 7 7 7 7 8 10 11 13 14 17 20 24 27 31 35 38 40 42 43 45 46 47 46 45 45 45 45 42 39 42 47 50 51 49 48 46 45 45 45 46 47 48 48 47 47 47 47 47 46 46 46 46 46 47 47 47 47 46 45 44 43 43 43 43 42 41 39 38 38 36 34 33 32 32 31 30 30 29 29 29 28 28 28 27
5 6 6 6 6 6 7 8 9 10 12 14 18 22 26 29 32 35 38 40 41 43 44 46 46 45 44 43 42 41 40 43 48 51 51 50 48 46 45 44 44 45 46 47 48 48 47 47 47 47 47 47 47 47 47 47 47 47 47 46 45 44 44 45 45 44 43 41 39 38 37 35 33 31 30 29 28 27 26 25 24 24 23 22 22 20
4 5 6 6 6 6 5 6 7 8 9 11 15 20 24 27 30 33 36 38 39 40 41 42 43 44 44 42 41 40 41 44 48 50 51 50 49 48 47 46 45 44 44 45 47 48 48 47 47 46 46 46 47 47 47 47 47 47 47 47 46 45 44 44 44 44 43 41 39 37 35 34 32 30 29 28 26 24 23 21 20 19 18 18 17 17
4 4 5 6 6 6 5 5 5 6 7 8 12 16 20 24 27 30 33 36 37 38 38 38 39 40 41 41 41 40 41 45 48 50 51 51 51 51 50 49 47 45 44 44 45 47 48 49 48 46 45 45 45 45 45 46 46 46 46 46 45 44 43 42 41 40 39 39 37 35 33 32 31 30 29 28 26 24 22 20 18 17 16 16 16 16
4 3 4 5 5 5 5 5 4 4 5 7 10 13 16 20 24 28 31 35 36 36 36 35 35 35 36 37 38 39 41 45 49 52 53 54 54 54 53 52 50 48 46 45 44 45 47 48 48 48 46 45 44 44 44 44 44 44 44 43 41 41 40 39 38 36 34 33 32 31 29 28 27 27 26 25 24 23 21 20 18 18 17 17 17 17
4 3 3 4 5 5 5 5 4 3 4 7 10 13 15 18 21 25 29 33 35 35 35 35 33 32 33 35 38 41 43 48 52 55 57 57 57 57 56 54 52 50 48 46 44 44 44 46 46 47 46 45 43 42 42 42 42 42 40 38 36 35 35 35 33 31 29 28 27 26 25 24 24 23 23 22 21 21 20 20 19 19 19 19 19 19
5 3 3 3 4 4 5 5 3 1 3 7 11 14 16 18 20 23 27 30 32 33 34 34 33 32 34 38 43 47 50 53 56 58 59 60 60 59 57 55 53 51 49 48 46 45 44 44 44 44 44 44 43 41 40 39 38 37 35 33 31 31 30 30 29 28 27 26 25 25 25 24 24 24 23 23 22 22 21 21 20 20 20 20 21 21
5 4 3 3 3 3 4 4 4 2 2 6 11 15 19 21 22 23 24 27 29 30 31 33 32 32 37 45 51 56 58 60 61 61 61 61 60 59 56 55 53 52 51 50 49 48 46 44 43 42 42 42 41 39 38 36 34 32 31 31 31 31 30 28 28 28 27 27 26 26 26 26 26 26 25 25 24 24 23 22 22 22 22 22 22 22
6 5 4 3 3 3 3 4 4 3 2 4 9 14 20 24 27 27 26 26 27 28 29 31 30 33 40 49 56 61 63 64 64 63 61 60 59 58 57 56 55 54 53 53 52 51 47 44 41 39 38 38 37 36 35 34 32 31 30 31 31 32 31 30 29 29 29 29 28 28 28 27 27 27 26 26 25 25 24 24 23 23 23 23 23 23
7 6 5 4 3 2 3 3 4 4 3 3 6 11 18 23 28 31 32 30 29 29 30 30 30 33 40 49 55 59 62 62 62 61 60 59 59 59 59 57 55 53 52 51 50 47 43 39 35 33 32 32 32 33 33 33 33 32 32 32 32 32 33 33 32 32 32 31 30 30 29 29 28 27 27 26 26 25 25 24 24 24 24 23 23 23
7 7 6 5 3 2 2 2 3 3 4 4 4 7 14 20 27 32 35 36 35 34 34 33 32 33 38 46 51 54 57 58 59 59 60 61 60 57 54 50 47 44 42 41 39 37 35 33 30 29 29 29 29 30 31 32 33 34 34 34 33 33 33 34 34 33 33 32 32 31 31 30 29 28 28 27 26 26 25 25 25 25 24 24 24 23
7 7 6 6 4 3 2 1 1 2 3 4 4 5 10 16 23 29 34 38 40 40 40 39 37 37 40 44 48 51 54 56 57 57 57 55 51 46 41 38 36 34 33 32 31 29 29 28 28 28 29 29 30 30 31 33 34 36 36 36 35 34 33 32 33 33 33 33 32 32 31 30 30 29 28 28 27 27 26 26 25 25 25 24 24 24
7 7 7 6 6 4 3 2 1 1 2 3 4 5 7 12 18 25 30 35 40 42 43 43 43 44 46 47 49 52 54 57 56 52 48 44 40 36 33 32 32 32 32 31 30 29 28 28 28 29 30 31 32 32 33 34 35 36 37 36 36 35 34 33 33 33 32 32 32 31 31 30 30 29 29 28 28 27 27 26 26 26 25 25 25 25
8 8 7 7 7 6 5 3 2 1 1 3 4 5 7 9 14 20 25 31 36 40 43 44 45 47 50 52 54 55 57 56 53 47 43 39 36 34 34 33 33 33 33 33 33 33 32 31 30 30 31 32 33 34 34 34 34 35 35 36 35 35 34 34 33 33 32 32 31 31 30 30 30 29 29 28 28 27 27 27 27 27 27 27 26 26
8 8 8 8 7 7 6 5 4 3 2 2 4 5 7 9 11 15 20 26 31 36 40 43 45 48 51 55 56 57 56 54 49 44 40 38 36 36 35 35 35 35 35 35 35 35 35 34 33 32 32 32 33 33 34 34 34 34 34 34 34 34 34 34 33 33 32 32 31 31 30 30 30 29 29 29 28 28 28 28 28 28 28 28 28 28
8 8 8 8 8 8 7 6 5 4 3 3 3 5 6 8 10 13 17 21 26 31 36 40 43 47 51 55 56 56 54 50 46 42 39 38 37 36 36 36 36 36 36 37 36 36 35 35 34 33 33 32 32 32 32 33 33 33 33 33 33 33 34 33 33 33 32 32 31 31 30 30 29 29 28 28 28 28 29 29 29 29 29 29 28 27
8 8 8 9 8 8 8 8 7 6 5 4 4 5 6 8 9 12 15 19 23 27 30 34 38 43 49 53 55 54 50 47 44 41 40 39 38 37 37 37 37 38 38 38 38 37 36 35 34 33 33 32 32 31 31 31 32 32 32 32 32 32 32 33 32 32 32 31 30 29 29 28 27 27 27 27 27 28 28 28 28 28 28 28 27 26
8 8 9 9 9 9 9 9 8 7 7 6 5 5 6 7 9 11 13 17 21 24 27 29 32 37 43 49 52 51 49 47 44 42 41 40 39 39 39 39 39 39 39 39 38 37 36 35 34 34 33 33 32 31 30 29 29 30 30 30 30 30 31 31 31 31 30 29 29 28 27 27 26 26 26 27 27 27 27 27 27 27 27 26 26 25
Wind_Direction
221 221 222 223 224 224 225 226 226 227 229 231 232 231 231 231 232 232 233 232 231 228 225 222 221 220 220 219 217 216 215 215 215 216 217 218 219 219 219 219 219 218 217 217 217 218 218 218 218 218 218 218 218 218 218 218 218 218 218 218 218 219 220 222 223 223 223 223 223 223 223 223 222 222 222 223 223 222 220 219 218 219 219 220 221 222
220 219 219 220 221 222 223 224 226 228 230 232 232 233 232 232 232 232 233 233 232 230 227 225 223 222 221 221 220 218 217 216 216 217 217 218 219 220 220 220 219 219 218 217 217 217 218 218 218 218 218 218 219 219 219 219 220 220 220 219 219 219 220 222 223 223 223 223 223 223 224 223 223 222 222 223 223 221 220 218 218 219 220 221 223 224
219 217 217 218 219 219 221 222 224 226 228 230 230 231 231 231 231 231 231 232 232 231 229 226 224 223 222 221 221 220 219 218 218 218 218 219 219 220 220 220 220 219 219 218 218 218 218 218 218 218 218 218 219 219 220 220 221 221 221 221 220 219 220 220 221 222 223 223 223 224 224 224 223 222 222 223 223 222 221 219 219 221 222 223 225 227
218 216 215 216 217 217 218 220 221 223 225 227 228 228 229 229 229 230 230 231 231 230 229 227 226 225 224 222 221 220 219 219 219 219 220 220 220 221 221 221 220 220 219 219 218 218 218 218 218 218 218 218 219 219 220 220 221 221 222 221 221 220 219 219 220 221 221 222 223 224 224 224 224 223 222 223 223 223 222 221 221 222 223 225 226 228
219 216 215 214 215 216 217 218 219 220 221 223 224 225 226 226 226 227 229 230 230 229 228 228 227 227 226 224 222 221 220 219 220 220 221 221 221 221 221 221 221 221 220 219 219 219 219 218 218 218 218 218 219 219 219 220 220 221 221 221 221 220 219 218 219 219 220 221 222 223 223 223 223 222 222 221 221 221 221 221 222 223 224 225 227 228
219 216 214 214 214 216 217 218 218 219 219 219 220 222 223 224 224 224 226 228 229 228 228 227 228 228 227 226 224 222 221 220 220 221 222 222 222 222 222 222 222 221 221 220 220 219 219 219 219 219 219 219 219 219 219 219 220 220 220 220 220 219 218 218 218 219 219 220 221 221 219 218 218 218 218 217 216 215 216 219 222 224 224 224 225 227
220 217 214 213 214 215 216 217 218 218 218 217 217 219 220 221 221 221 223 226 227 227 226 227 227 228 228 228 226 225 223 222 221 221 221 222 223 223 223 223 222 222 221 221 220 220 220 220 220 219 219 219 219 219 219 219 220 220 220 219 219 218 218 217 217 218 219 220 219 216 213 212 213 215 215 212 209 207 209 216 222 225 225 225 225 226
222 219 215 214 214 214 215 216 218 218 218 217 216 216 217 217 217 218 220 224 226 226 226 226 226 227 228 228 227 226 225 224 223 222 221 221 222 223 224 223 223 223 222 222 221 221 221 221 220 220 220 219 219 219 219 219 220 220 220 220 219 218 218 217 217 218 218 218 216 213 210 211 214 216 214 209 202 200 206 216 223 227 228 227 227 228
222 220 217 215 215 214 214 215 216 218 218 217 216 215 215 214 214 216 219 222 225 225 225 225 226 227 228 228 227 226 225 225 224 222 221 221 221 222 223 224 224 223 223 222 222 222 221 221 221 221 220 220 219 219 218 219 220 221 221 220 219 219 219 219 218 218 218 217 215 213 213 216 219 220 216 207 201 202 212 221 226 229 230 231 231 232
224 221 220 218 216 215 214 214 215 217 218 218 217 216 215 213 213 215 219 222 224 224 225 225 227 228 228 228 226 225 225 224 224 223 222 221 221 221 222 223 224 224 224 223 223 222 222 222 222 221 221 220 219 218 218 217 218 220 220 220 220 219 219 220 220 220 219 218 217 217 219 220 222 222 219 213 211 215 222 226 229 231 232 234 234 235
230 225 223 222 220 218 217 215 216 217 218 219 218 217 216 215 215 217 219 222 223 224 225 226 228 230 230 229 227 225 224 224 224 224 223 222 221 221 221 222 223 224 224 224 224 223 223 223 222 222 221 221 220 219 217 217 217 218 219 219 218 218 219 220 220 220 220 220 221 222 222 221 222 222 221 220 222 225 227 229 231 233 234 235 235 234
237 232 229 227 226 223 220 218 217 217 218 219 219 219 218 217 217 218 220 221 222 223 224 225 227 229 230 230 228 225 223 223 223 224 223 223 222 221 221 221 222 222 223 223 224 224 223 223 223 222 222 221 221 220 219 218 217 218 218 218 217 217 218 219 219 220 220 221 221 221 219 219 219 220 221 223 226 227 229 230 232 233 234 235 235 233
241 238 235 233 231 228 224 221 218 216 216 217 217 217 217 217 217 218 220 221 221 221 220 220 222 225 228 229 228 226 223 222 223 224 224 223 223 222 221 221 221 221 222 222 223 223 223 224 224 223 223 222 221 221 220 219 219 219 218 218 218 217 217 218 219 219 220 220 218 214 211 213 215 218 221 224 227 228 229 230 232 234 235 235 232 227
241 238 236 234 232 229 225 221 217 215 214 214 215 215 215 215 215 216 218 218 217 215 212 211 212 216 221 226 227 226 224 222 222 223 224 224 223 222 221 221 221 221 221 221 222 222 223 223 224 224 223 223 222 222 221 220 220 220 220 219 219 219 219 219 220 220 220 219 215 209 205 210 213 216 221 225 228 229 230 231 232 234 235 234 229 223
235 233 231 229 227 225 222 218 215 213 212 212 213 213 213 213 213 213 214 214 211 206 203 203 204 207 211 219 225 227 224 222 222 223 224 224 224 223 222 221 221 220 220 221 221 221 222 223 224 224 224 224 223 223 222 222 221 221 221 221 221 221 221 222 222 222 221 220 215 210 208 212 214 215 220 225 228 230 230 231 233 233 232 229 226 222
231 229 227 225 222 220 218 215 212 210 210 210 211 211 211 210 210 210 209 207 203 199 198 201 201 200 203 212 220 225 224 222 222 223 224 224 224 223 222 221 220 220 220 220 220 221 221 222 223 224 225 225 225 224 224 223 223 222 222 222 222 223 223 224 224 224 224 222 219 217 218 217 214 213 216 223 228 230 231 232 232 230 226 221 219 220
230 228 226 223 221 218 215 212 210 208 207 208 209 209 208 207 207 206 205 201 196 195 198 200 199 197 197 205 216 222 223 222 221 222 223 224 224 223 222 220 219 219 219 219 220 220 221 222 223 224 224 225 225 225 225 224 224 223 223 222 222 223 224 224 225 225 225 225 223 221 222 219 212 209 213 221 227 230 231 232 232 228 222 216 215 218
234 230 227 224 220 217 214 211 208 206 205 206 207 207 206 205 204 203 200 196 194 196 199 199 197 195 193 198 210 220 222 222 220 220 221 223 223 223 221 220 219 218 218 219 219 220 220 221 222 223 224 225 226 226 226 225 225 224 223 223 223 223 223 224 225 225 225 225 224 223 222 217 211 209 214 222 228 231 232 233 232 228 221 216 215 217
242 237 232 226 221 217 213 210 207 205 204 204 205 206 205 204 202 200 197 194 195 198 199 198 195 192 191 194 203 214 221 222 221 220 220 221 222 222 221 219 217 216 216 217 218 219 220 221 222 223 224 225 225 226 226 226 226 225 224 224 224 223 224 224 225 225 225 224 223 223 221 218 214 214 219 225 229 231 232 233 231 227 221 217 215 215
247 242 236 230 224 218 213 210 207 205 204 203 203 204 204 203 201 198 195 195 197 199 199 197 194 190 189 191 197 206 215 221 222 221 220 219 220 220 220 218 216 215 214 216 217 218 219 220 221 222 223 224 225 226 226 227 227 226 226 225 225 224 224 225 225 225 224 223 222 221 221 217 215 217 223 227 230 232 232 231 228 224 219 216 214 215
249 244 237 232 226 220 215 211 208 205 204 203 202 203 203 203 200 197 196 197 199 200 197 196 193 189 187 189 193 199 207 215 220 222 221 219 218 218 219 218 215 213 213 214 215 216 217 218 219 221 222 223 224 225 226 227 227 227 227 227 227 226 226 226 225 225 224 222 220 220 219 216 214 215 220 224 227 228 230 228 224 220 217 215 215 216
251 246 240 234 229 223 218 213 209 206 204 202 201 201 202 202 201 199 197 199 201 200 198 195 192 189 186 188 191 196 201 208 212 215 216 216 216 217 218 217 215 213 212 213 215 216 216 216 217 218 220 221 222 224 225 226 227 228 228 229 228 228 227 226 225 224 222 220 219 218 217 214 212 213 216 220 223 224 225 224 221 218 216 215 216 217
254 250 244 237 231 227 221 215 211 207 204 203 201 201 200 201 201 200 200 203 204 203 199 197 194 191 187 188 191 195 199 203 206 207 207 209 212 215 216 216 215 213 212 213 215 216 216 216 216 217 217 218 220 221 222 223 225 226 227 228 228 228 228 226 224 221 217 215 214 215 214 213 213 213 215 218 222 224 224 224 222 219 217 217 217 218
256 252 245 240 234 229 223 217 212 209 206 204 202 201 200 200 200 201 203 206 207 206 203 200 198 195 191 190 191 195 198 202 203 203 202 200 204 209 212 212 212 213 213 213 212 212 213 215 216 216 217 217 218 219 220 220 221 222 222 222 222 222 222 221 218 215 212 211 212 212 213 214 216 217 219 221 224 226 228 227 225 222 220 218 218 219
260 256 251 245 238 232 225 219 214 211 208 205 203 201 200 200 200 202 204 208 210 210 208 205 203 200 196 193 192 194 197 201 203 204 203 199 199 202 206 206 206 207 209 211 210 207 205 205 208 211 213 215 217 219 220 220 219 219 219 217 215 214 214 213 211 210 211 212 214 214 215 216 218 219 221 223 226 227 228 227 225 223 222 221 220 220
264 262 258 253 245 237 229 223 218 214 210 207 204 202 200 200 201 202 205 208 212 213 212 210 208 205 200 196 194 193 195 199 202 204 205 203 200 199 201 200 199 198 199 204 207 206 202 198 198 200 201 202 207 213 216 218 219 219 218 217 216 215 214 212 210 210 210 213 214 215 215 216 218 220 222 223 225 226 226 226 225 225 224 225 225 225
270 267 264 258 251 243 235 228 222 217 212 209 205 203 201 201 201 202 205 208 211 213 213 212 211 209 204 200 197 194 193 196 200 203 204 205 205 203 201 200 197 194 192 195 200 203 203 200 199 199 197 193 194 198 202 206 210 213 215 216 217 217 217 216 213 211 211 213 215 216 217 218 221 223 225 227 228 228 229 229 229 230 230 230 231 231
282 279 274 266 258 249 240 233 226 220 215 211 207 205 203 202 202 203 204 207 210 212 213 214 214 213 208 203 200 195 191 194 198 202 203 205 207 207 205 204 203 201 197 195 194 196 198 199 201 201 200 195 192 190 192 195 198 201 203 207 210 212 214 215 215 214 214 215 217 219 220 222 224 226 227 229 230 231 231 232 233 234 234 234 233 232
296 292 286 278 268 257 246 237 230 223 218 214 210 206 204 203 203 203 204 206 209 212 214 215 215 214 212 207 203 197 191 192 196 200 202 204 206 208 209 209 208 206 204 201 196 193 193 195 198 200 201 199 196 193 191 193 195 197 197 200 202 204 206 209 211 212 213 214 216 218 220 222 223 225 226 227 229 230 231 232 232 233 233 233 230 227
305 300 295 288 279 268 256 244 235 227 221 216 212 209 206 204 204 204 204 206 208 211 213 214 215 216 214 212 208 202 193 190 193 198 201 203 205 206 208 210 210 209 207 205 203 199 196 195 196 198 199 200 199 198 197 197 198 199 199 199 200 201 203 205 208 209 211 213 214 215 217 218 220 221 222 223 224 225 226 227 228 228 228 227 224 221
310 306 301 294 285 275 265 254 243 233 225 219 214 211 208 206 205 205 205 205 208 210 212 211 213 215 216 215 212 207 197 189 190 195 199 202 204 205 206 209 211 211 210 208 207 206 203 200 199 200 201 201 202 202 202 202 202 203 203 202 201 201 203 206 208 210 211 211 212 212 213 214 215 216 217 217 218 218 219 220 221 222 221 221 220 218
309 308 303 296 288 279 269 260 251 241 231 222 216 212 209 208 206 205 205 205 207 209 210 211 212 215 216 215 214 210 201 189 188 193 197 201 204 204 205 208 210 211 210 211 211 211 210 207 206 205 206 206 206 206 206 205 205 206 207 206 204 203 204 206 209 210 210 209 208 208 208 209 210 210 211 211 211 212 212 213 214 215 216 216 217 217
310 311 309 302 292 282 272 264 256 246 235 223 215 211 209 208 207 206 205 205 206 208 209 211 213 215 216 215 214 212 205 194 190 192 197 200 203 205 206 207 209 210 210 211 213 214 215 214 212 212 211 211 211 211 210 209 208 208 209 209 208 206 206 209 211 211 210 208 206 205 204 204 204 205 205 206 206 206 207 207 208 208 210 211 213 214
313 320 321 317 306 291 276 266 258 249 236 222 212 207 206 207 207 207 206 206 206 206 207 209 212 215 216 215 212 210 208 199 193 193 197 200 203 206 208 209 210 211 211 211 213 215 217 217 217 216 215 215 215 215 215 214 213 211 211 211 210 209 210 212 214 214 213 211 208 206 204 203 201 201 202 202 203 203 202 202 201 202 204 205 206 206
313 326 333 332 323 305 285 271 260 249 235 218 206 202 202 204 206 207 207 206 206 205 206 207 210 213 215 214 210 207 207 202 197 196 198 201 204 208 211 213 214 214 213 213 213 214 216 218 219 219 218 217 217 218 218 219 218 216 214 213 212 210 210 212 214 216 216 214 212 210 209 206 204 204 204 204 204 203 202 200 199 199 199 198 195 192
305 327 339 341 335 322 300 278 262 249 233 214 201 196 197 200 203 205 206 206 205 204 204 205 208 211 214 215 212 208 206 204 201 199 201 204 207 211 215 218 219 219 218 217 215 215 216 217 219 221 221 221 220 219 219 220 220 219 217 216 215 213 212 212 212 213 215 215 215 214 212 211 211 212 213 213 213 212 210 208 204 201 196 190 184 180
288 318 337 345 343 335 319 294 272 254 234 214 199 194 193 196 199 202 204 204 203 202 202 203 205 208 212 214 215 213 209 207 205 204 205 208 212 216 220 223 225 225 223 222 219 218 217 217 218 220 222 224 225 223 221 220 219 219 218 216 216 215 214 214 213 212 213 214 214 214 214 214 215 217 218 219 219 217 214 210 204 196 189 182 179 178
267 300 330 344 347 344 335 320 298 269 237 215 203 196 194 195 197 200 201 202 201 200 199 200 202 205 209 213 216 216 213 210 209 209 210 213 217 221 225 227 228 228 228 227 225 223 221 220 219 219 221 223 226 227 225 222 219 216 214 212 211 211 211 212 213 212 211 210 210 209 208 207 208 209 210 210 209 206 201 195 189 184 181 179 179 180
250 277 315 338 346 348 346 342 327 284 232 211 203 199 198 198 198 199 199 200 199 198 198 198 200 204 209 212 215 216 214 211 210 210 212 216 220 224 227 229 230 230 229 229 229 228 227 226 224 223 222 223 223 224 224 221 217 212 208 204 202 202 203 204 204 204 202 201 200 198 196 193 191 191 190 190 188 186 184 180 176 175 175 177 179 182
240 255 285 319 336 344 349 353 351 317 218 205 201 200 200 202 203 201 200 199 198 198 198 197 199 204 210 212 212 211 210 209 209 209 211 215 219 224 228 231 232 232 231 230 230 230 231 230 229 227 226 225 223 221 218 214 210 205 201 196 193 193 192 191 190 189 188 187 186 185 183 181 178 176 175 175 174 174 174 174 174 175 178 181 184 187
234 244 260 288 318 336 347 359 9 19 191 196 198 199 200 201 204 205 203 201 200 200 201 199 200 205 209 207 204 202 202 202 203 205 208 213 218 223 228 231 233 233 233 231 231 231 231 230 228 227 225 224 221 217 213 208 203 199 196 194 192 189 185 182 180 180 178 178 178 177 176 174 172 172 171 171 171 172 173 175 177 180 183 186 190 193
231 237 246 263 294 324 345 2 18 36 102 173 189 196 198 199 200 203 205 206 205 204 203 201 203 206 206 200 195 192 191 193 196 200 205 211 217 223 227 230 232 233 233 232 231 229 227 224 221 218 216 214 212 209 205 202 198 195 193 192 190 186 182 181 181 179 176 175 175 174 173 172 172 172 172 172 173 175 177 179 182 185 189 192 195 198
227 231 237 245 266 303 337 0 21 43 71 125 173 190 196 197 197 197 199 203 205 206 205 203 205 206 204 197 191 188 187 189 193 198 205 212 217 222 224 227 228 229 229 227 224 219 214 209 205 202 201 201 200 199 197 194 191 189 187 186 184 182 180 181 180 178 176 175 174 174 173 173 173 174 174 175 177 179 181 185 188 191 194 197 200 203
224 227 230 234 245 267 309 353 22 45 66 90 136 177 191 196 196 194 194 196 200 204 205 204 205 206 205 200 195 191 190 192 197 202 207 211 213 214 215 216 216 217 216 213 208 200 194 190 188 188 188 188 189 190 189 187 184 181 179 179 179 179 179 179 178 175 174 174 174 174 174 174 175 176 177 179 181 184 186 190 193 196 199 201 204 207
221 224 227 228 231 235 247 297 16 49 69 85 110 151 180 192 195 194 192 192 195 199 202 204 204 204 205 203 202 200 199 199 202 205 205 203 200 199 199 199 199 198 196 194 190 186 182 180 180 180 179 178 179 180 181 180 178 175 173 173 174 175 177 176 175 174 174 175 175 175 175 176 177 178 181 183 186 188 191 194 197 200 203 206 209 212
216 220 222 223 223 222 221 221 212 83 83 88 103 129 160 181 191 193 192 190 191 194 197 201 203 204 203 204 204 204 204 202 202 201 195 190 185 183 183 183 183 182 181 180 178 176 176 177 178 176 174 173 173 174 175 174 173 172 171 171 171 172 172 173 173 174 175 175 176 177 178 178 180 182 184 187 189 191 194 197 200 203 206 209 212 215
207 212 215 217 217 216 213 209 202 179 122 101 104 118 140 164 181 189 192 191 190 191 194 198 201 202 202 202 202 201 200 197 194 189 181 177 175 174 174 174 174 174 174 173 172 171 172 174 174 173 172 171 171 171 171 172 172 172 171 171 171 171 172 173 174 175 176 177 178 179 180 182 183 186 188 190 192 195 198 200 203 206 209 211 214 217
198 203 207 210 212 211 210 207 203 194 172 135 117 118 129 147 165 180 188 190 189 189 191 194 197 198 199 198 197 195 192 188 183 179 175 173 173 173 173 173 173 173 172 171 170 170 171 172 173 173 172 171 171 171 171 171 172 173 173 173 173 173 173 175 176 177 178 179 181 182 184 185 187 189 191 193 195 198 202 204 207 209 212 214 216 219
191 196 200 203 206 207 207 206 203 198 187 167 140 126 126 136 151 166 178 185 187 187 187 189 191 193 193 192 190 188 185 183 180 178 176 174 174 174 174 175 175 174 174 173 172 172 172 173 174 175 175 175 175 175 175 175 176 176 177 177 177 177 178 178 180 181 182 183 184 186 188 190 192 194 196 198 201 204 206 209 211 213 215 218 219 221
187 191 195 198 201 203 204 204 202 199 193 182 164 144 133 134 142 155 167 177 181 183 184 185 187 188 188 187 186 184 183 183 181 180 178 176 175 175 175 176 177 177 176 175 175 176 177 179 180 180 181 181 181 181 181 181 181 181 182 182 182 182 183 183 184 185 187 188 189 191 193 195 198 200 202 204 207 209 211 213 215 217 219 221 222 224
184 187 190 194 197 200 202 203 202 199 195 188 178 164 148 139 139 146 157 167 174 177 179 181 184 187 188 186 185 185 185 186 185 183 181 180 179 178 178 178 180 180 181 180 181 182 184 186 187 188 187 186 185 185 185 184 184 184 185 186 187 187 188 188 189 190 191 192 194 195 198 201 203 205 206 208 210 212 213 215 216 218 220 222 224 226